Simultaneous Nadir Overpasses (SNOs) Predictions

Prediction of SNOs between LANDSAT-8 and METOP-B Satellite Orbit:

Table of predicted SNOs for the next 14.0 days since TLE Epoch: 11/23/2019
Index Date (LANDSAT-8) Time (LANDSAT-8) Lat,Lon (LANDSAT-8) SZA (LANDSAT-8 ) Date (METOP-B) Time (METOP-B) Lat,Lon (METOP-B) SZA (METOP-B ) Distance(km) Time Diff (sec)
1 11/24/2019 20:30:27 -81.10, 92.01 76.05 11/24/2019 20:30:24 -81.10, 91.85 76.07 2.88 3
2 11/24/2019 21:19:52 81.13, -99.91 104.03 11/24/2019 21:21:02 81.13, -99.73 104.08 3.13 70
3 11/27/2019 15:15:16 81.07, -9.73 104.38 11/27/2019 15:14:10 81.07, -9.89 104.34 2.67 66
4 11/27/2019 16:04:42 -81.09, 158.25 75.57 11/27/2019 16:04:49 -81.09, 158.11 75.58 2.41 7
5 11/30/2019 10:49:29 81.08, 56.82 104.86 11/30/2019 10:48:33 81.08, 56.74 104.83 1.49 56
6 11/30/2019 11:38:55 -81.10,-135.17 75.09 11/30/2019 11:39:12 -81.10,-135.26 75.09 1.54 17
7 12/03/2019 06:23:43 81.08, 123.37 105.28 12/03/2019 06:22:57 81.08, 123.36 105.26 0.14 46
8 12/03/2019 07:13:09 -81.11, -68.61 74.67 12/03/2019 07:13:36 -81.11, -68.63 74.66 0.39 27
9 12/06/2019 01:57:57 81.09,-170.10 105.63 12/06/2019 01:57:21 81.09,-170.01 105.63 1.62 36




NCC Satellite Simultaneous Nadir Overpasses (SNOs) Prediction Service
